{"data":{"norad_id":66037,"epoch":"2026-09-20T20:01:03.114048Z","epoch_age_seconds":111474,"freshness":"FRESH","line1":"1 66037U 25233E   26263.83406382  .00000039  00000+0  41836-4 0  9997","line2":"2 66037  89.0060  32.9959 0001625  96.2341 263.8996 13.51027778 46399","mean_motion":13.51027778,"eccentricity":0.0001625,"inclination_deg":89.006,"raan_deg":32.9959,"arg_perigee_deg":96.2341,"mean_anomaly_deg":263.8996,"bstar":4.1836e-5,"rev_number":4639,"period_min":106.5855212934,"perigee_km":1067.26943683,"apogee_km":1069.6895871964,"semimajor_km":7446.6165120132,"source":"CELESTRAK","updated_at":"2026-09-21T09:00:15.732563Z"}}